{"data":{"norad_id":59718,"epoch":"2026-05-24T18:22:52.425120Z","epoch_age_seconds":98825,"freshness":"FRESH","line1":"1 59718U 24088L   26144.76588455  .00000259  00000+0  69871-5 0  9998","line2":"2 59718  53.1582 311.0356 0000620  74.9450 285.1637 15.69709098118222","mean_motion":15.69709098,"eccentricity":6.2e-5,"inclination_deg":53.1582,"raan_deg":311.0356,"arg_perigee_deg":74.945,"mean_anomaly_deg":285.1637,"bstar":6.9871e-6,"rev_number":11822,"period_min":91.736742931205,"perigee_km":359.31158388719,"apogee_km":360.14707931231,"semimajor_km":6737.8663315997,"source":"CELESTRAK","updated_at":"2026-05-25T13:38:19.047808Z"}}